Location: Kuffner-Sternwarte
(48.2130°N, 16.2960°E)
Time: 22:08:40
(UTC+01:00)

COROT - Pass Details

Date: 22 January 2018
Orbit: 599 x 890 km, 90.0° (Epoch: 19 January)

Event Time Altitude Azimuth Distance (km) Brightness Sun altitude
Rises 17:46:04 0° 210° (SSW) 3,035 9.9 -11.2°
Reaches altitude 10° 17:48:46 10° 225° (SW) 2,078 9.3 -11.6°
Maximum altitude 17:52:24 23° 278° (W) 1,355 8.2 -12.2°
Drops below altitude 10° 17:55:53 10° 332° (NNW) 1,993 8.3 -12.8°
Sets 17:58:26 0° 347° (NNW) 2,880 9.0 -13.2°
